This is the latest recevied weather packets stored in our database for station/object SR9NCI. If no packets are shown the sender has not sent any weather packets the latest 1 day(s).
| Time | Temp. | Humidity | Pressure | Rain* | Wind** | Luminosity | Snow |
|---|---|---|---|---|---|---|---|
| 1777958560 | 21.11° C | - | 0 hPa | - | 3.58 m/s, 121° | - | - |
| 1777958318 | 20.56° C | - | 0 hPa | - | 3.58 m/s, 124° | - | - |
| 1777958070 | 20.56° C | - | 0 hPa | - | 4.47 m/s, 127° | - | - |
| 1777957827 | 20.56° C | - | 0 hPa | - | 4.02 m/s, 124° | - | - |
| 1777957587 | 20° C | - | 0 hPa | - | 4.47 m/s, 132° | - | - |
| 1777957345 | 20° C | - | 0 hPa | - | 3.58 m/s, 121° | - | - |
| 1777957104 | 19.44° C | - | 0 hPa | - | 3.58 m/s, 125° | - | - |
| 1777956862 | 19.44° C | - | 0 hPa | - | 3.58 m/s, 133° | - | - |
| 1777956620 | 19.44° C | - | 0 hPa | - | 1.79 m/s, 139° | - | - |
| 1777956379 | 19.44° C | - | 0 hPa | - | 2.24 m/s, 128° | - | - |
| 1777956138 | 20° C | - | 0 hPa | - | 1.34 m/s, 138° | - | - |
| 1777955896 | 19.44° C | - | 0 hPa | - | 1.34 m/s, 132° | - | - |
| 1777955647 | 19.44° C | - | 0 hPa | - | 0.45 m/s, 111° | - | - |
| 1777955405 | 20° C | - | 0 hPa | - | 0.45 m/s, 111° | - | - |
| 1777955164 | 20° C | - | 0 hPa | - | 1.79 m/s, 150° | - | - |
| 1777954923 | 19.44° C | - | 0 hPa | - | 1.34 m/s, 111° | - | - |
| 1777954680 | 19.44° C | - | 0 hPa | - | 0 m/s | - | - |
| 1777954438 | 18.89° C | - | 0 hPa | - | 1.34 m/s, 111° | - | - |
| 1777954196 | 18.89° C | - | 0 hPa | - | 1.79 m/s, 138° | - | - |
| 1777953955 | 18.33° C | - | 0 hPa | - | 2.68 m/s, 146° | - | - |
| 1777953712 | 18.33° C | - | 0 hPa | - | 1.79 m/s, 127° | - | - |
| 1777953471 | 18.33° C | - | 0 hPa | - | 2.24 m/s, 117° | - | - |
| 1777953223 | 18.33° C | - | 0 hPa | - | 1.79 m/s, 130° | - | - |
| 1777952981 | 18.33° C | - | 0 hPa | - | 2.24 m/s, 149° | - | - |
| 1777952739 | 17.78° C | - | 0 hPa | - | 2.24 m/s, 124° | - | - |
* Rain since midnight (hover to see other rain measurements)
** Current wind speed in m/s (hover to see current wind gust speed)